Location: Alpine
(43.1636°N, 111.0180°W)
Time: 05:34:06
(UTC+00:00)

Tiros 1 despin weight - Pass Details

Date: 04 June 2022
Orbit: 591 x 639 km, 48.2° (Epoch: 30 June)

Event Time Altitude Azimuth Distance (km) Brightness Sun altitude
Rises 02:00:40 0° 290° (WNW) 2,883 ? 8.6°
Reaches altitude 10° 02:03:02 10° 296° (WNW) 1,968 ? 8.2°
Maximum altitude 02:07:27 51° 12° (NNE) 760 ? 7.4°
Drops below altitude 10° 02:11:47 10° 90° (E) 1,936 ? 6.7°
Sets 02:14:07 0° 95° (E) 2,831 ? 6.3°
